Tracking 19846 objects as of 21-Sep-2019
HD Live streaming from Space Station
objects crossing your sky now

ELEKTRON 3 DEB

Track ELEKTRON 3 DEB now!
10-day predictions


NORAD ID: 29008
Int'l Code: 1964-038G
Perigee: 400.4 km
Apogee: 5,988.8 km
Inclination: 60.8 °
Period: 155.2 minutes
Semi major axis: 9565 km
RCS: 0.0196 m2 (small)
Launch date: July 10, 1964
Source: Commonwealth of Independent States (former USSR) (CIS)
Launch site: TYURATAM MISSILE AND SPACE COMPLEX (TTMTR)

Note: This is SATELLITE DEBRIS
aabbcc
Your satellite tracking list
Your tracking list is empty




NASA's NSSDC Master Catalog

Two Line Element Set (TLE):
1 29008U 64038G   19261.83453356  .00000092  00000-0  36785-4 0  9990
2 29008  60.8357  16.7693 2921081  89.4900 303.5172  9.27974494505371
Source of the keplerian elements: AFSPC